COSMOS 252 DEB *, 18648

Orbit data source: Space-Track

COSMOS 252 DEB *, 18648 is space debris in LEO originally from a launch on Fri, 01 Nov 1968 UTC launched from the Tyuratam Missile And Space Complex (TTMTR). Debris objects in space refer to the collection of defunct objects orbiting the Earth. Examples of debris include non-operational satellites, rocket bodies, and fragments generated from explosions, collisions, or faulty payload assembly.

Loading next visibility...
Identifier
18648, 1968-097ED
Orbit
LEO
Country
Flag of CISCIS
Related business
Manufacturer
Unknown
Mission
Spacecraft
Bus & Motor
Unknown
Mass
Unknown
Launch date (UTC)
1968-11-01 (58 years ago)
Launch vehicle
Unknown
Launch site
Tyuratam Missile And Space Complex (TTMTR)
Object type
Payload
Rocket body
Debris
Shape & HBR
Unknown shape, 1.1 m
Radar Cross Section
Medium (>0.1 m² and <1 m²)

Expand to show TLE details & history
Last TLE update: 1 day ago

TLE from 1 day ago
0 COSMOS 252 DEB *
1 18648U 68097ED  26174.17166269  .00001504  00000-0  12372-2 0  9992
2 18648  62.2095 235.9667 0552852 356.0831   3.5938 13.38160082656371
Epoch: 2026-06-23T04:07Z
TLE epoch observation values (Epoch: 2026-06-23T04:07:11.656Z)
Latitude
0.00001°
Longitude
-97.17891°
Altitude
704.368 km
Speed
7.708 km/s
True Right ascension
15h 43m 52s
True Declination
0° 00' 00"
Sunlit
Object was in full shadow at epoch
Visualization orbit readout
Latitude
Unknown
Longitude
Unknown
Altitude
Unknown
Speed
Unknown
Apparent Right ascension
Unknown
Apparent Declination
Unknown
Sunlit
N/A
Visualization observer readout
Local Sidereal Time
03:13:38
Azimuth
Unknown
Elevation
Unknown
Doppler factor
Unknown
Orbital elements
Apogee altitude
1,529.385 km
Perigee altitude
700.853 km
Semi-major axis
7,493.256 km
Eccentricity
0.05529
Inclination
62.2095°
RAAN
235.9667°
Arg. of periapsis
356.0831°
True anomaly
4.02023°
Mean anomaly
3.5938°
Eccentric anomaly
3.80395°
Mean motion
3.34609 °/min
Orbital period
107.59 mins
BSTAR
0.0012372
Loading maneuver chart data...
Computing Atmospheric mass density...

Documentation

Showing up to 5 results
|